Regional Weather Roundup
Issued by NWS Pendleton, OR

Home | Current Version | Previous Version | Text Only | Print | Product List | Glossary On
Versions: 1 2 3 4 5 6 7 8 9 10 11 12 13 14 15 16 17 18 19 20 21 22 23 24 25 26 27 28 29 30 31 32 33 34 35 36 37 38 39 40 41 42 43 44 45 46 47 48 49 50
000
ASUS46 KPDT 050010
RWRPDT
PENDLETON REGIONAL WEATHER ROUNDUP
NATIONAL WEATHER SERVICE PENDLETON OREGON
500 PM PDT WED MAY 4 2016

NOTE: FAIR INDICATES FEW OR NO CLOUDS BELOW 12,000 FEET WITH NO
SIGNIFICANT WEATHER AND/OR OBSTRUCTIONS TO VISIBILITY.

# INDICATES UNOFFICIAL STATION AND DATA

WAZ520-050110-
EAST SLOPES OF WASHINGTON CASCADES

CITY            SKY/WX      TMP DP  RH  WIND    PRES   REMARKS
#CLE ELUM HS    N/A         56  51  83  W6      29.88
#CLE ELUM 2NW   N/A         54  51  90  SW2     N/A
#CLE ELUM LAKE  N/A         52  51  96  CALM    29.86
#GLENWOOD       N/A         67  55  65  S3      29.80
#NELSON 3SW     N/A         54  52  93  CALM    30.05
#NILE           N/A         62  50  65  W6      29.10
#RONALD 2NW     N/A         54  N/A N/A NW1     29.80S
#TEANAWAY 4NE   N/A         59  54  83  W5      N/A
#TROUT LAKE 1NE N/A         64  54  70  CALM    29.80
$$

WAZ521-050110-
SIMCOE HIGHLANDS

CITY            SKY/WX      TMP DP  RH  WIND    PRES   REMARKS
#BICKLETON HS   N/A         68  33  27  SW2     N/A
#CENTERVILLE 1SWN/A         68  51  55  W13     29.76
#GOLDENDALE 1NE N/A         71  33  25  SW5     N/A
#GOODNOE HILLS  N/A         74  49  41  W8      29.74S
#LYLE 6NE       N/A         61  51  70  CALM    29.80
$$

WAZ026-050110-
KITTITAS VALLEY

CITY            SKY/WX      TMP DP  RH  WIND    PRES   REMARKS
ELLENSBURG AP   MOCLDY      73  52  48  NW15    29.85
6HR MIN TEMP:   69; 6HR MAX TEMP:   75; 6HR PCP:  TRACE;

YTC-OPS AREA    MOSUNNY     67  37  33  SE2     29.90
6HR MIN TEMP:   62; 6HR MAX TEMP:   68;

#ELLENSBURG 3NE N/A         71  53  53  NW3     29.85
#ELLENSBURG     N/A         71  53  53  NW3     N/A
#KITTITAS 4N    N/A         72  50  46  SW3     29.90S
#KITTITAS 3S    N/A         69  56  63  W3      29.77
#THORP 6N       N/A         60  52  75  W13     29.85
$$

WAZ027-050110-
YAKIMA VALLEY

CITY            SKY/WX      TMP DP  RH  WIND    PRES   REMARKS
YAKIMA AIRPORT  MOCLDY      77  45  32  CALM    29.82
6HR MIN TEMP:   72; 6HR MAX TEMP:   79; 6HR PCP:  TRACE;

YAKIMA-VAGABOND SUNNY       73  46  38  NW3     29.80
6HR MIN TEMP:   69; 6HR MAX TEMP:   74;

#DONALD 2NE     N/A         77  29  17  E1      28.67R
#GRANDVIEW      N/A         77  43  30  SE2     29.77
#MABTON         N/A         77  50  39  NW5     29.78
#NACHES 2SW     N/A         72  49  44  CALM    29.85
#TERRACE HTS    N/A         77  47  35  CALM    29.74
#TOPPENISH      N/A         75  49  40  CALM    29.70
#WEST VALLEY    N/A         72  48  43  CALM    29.76
#W YAKIMA       N/A         73  48  41  E2      29.77S
#WHITE SWAN 5E  N/A         74  54  50  CALM    29.78
#WILEY CITY 3W  N/A         73  44  35  CALM    29.80
$$

WAZ028-050110-
LOWER COLUMBIA BASIN...WASHINGTON

CITY            SKY/WX      TMP DP  RH  WIND    PRES   REMARKS
PASCO           CLOUDY      81  47  30  N12     29.80
6HR MIN TEMP:   74; 6HR MAX TEMP:   81; 6HR PCP:  TRACE;

PROSSER AWOS    N/A         79  46  31  N9      29.81
RICHLAND AWOS   CLOUDY      82  48  31  N8      29.79
#BENTON CITY    N/A         78  47  34  E3      29.67
#CONNELL 5N     N/A         75  51  43  NW1     29.79
#CONNELL 5NW    N/A         74  52  46  CALM    29.76
#ELTOPIA 6NW    N/A         77  51  40  CALM    28.79
#KAHLOTUS       N/A         75  47  37  VRB9    29.77
#KENNEWICK 3S   N/A         79  52  39  CALM    29.77
#PATERSON       N/A         80  47  31  E2      29.75
#SAGEMOOR 2W    N/A         79  54  42  N3      29.63
#TOUCHET 2S     N/A         77  61  58  NW3     29.75
#WEST PASCO     N/A         82  54  38  N2      29.83
$$

WAZ029-050110-
FOOTHILLS OF THE BLUES...WASHINGTON

CITY            SKY/WX      TMP DP  RH  WIND    PRES   REMARKS
WALLA WALLA AP  CLOUDY      76  53  45  S5      29.81
6HR MIN TEMP:   73; 6HR MAX TEMP:   79;

#CLYDE 6NW      N/A         75  51  43  N8      29.77
#DAYTON SCHOOL  N/A         76  45  33  E5      29.84
#LOWDEN 2SE     N/A         80  55  42  N3      29.74
#PLEASANT VIEW 1N/A         74  50  43  NW3     29.80
#PRESCOTT       N/A         78  56  47  N3      29.75
#SUDBURY        N/A         79  N/A N/A CALM    N/A
#WHITMAN COLLEGEN/A         77  56  48  N3      29.81
#WAITSBURG 5S   N/A         77  53  43  N7      29.84
#WAITSBURG 8N   N/A         76  25  15  NW10    29.62F
#WALLA WALLA U  N/A         79  53  41  CALM    29.75
#WHITMAN MISSIONN/A         78  55  45  CALM    29.77
$$

WAZ030-050110-
BLUE MOUNTAINS...WASHINGTON

CITY            SKY/WX      TMP DP  RH  WIND    PRES   REMARKS
#DIXIE 5SE      N/A         68  54  61  NW7     29.82
$$

ORZ009-041-WAZ024-050110-
COLUMBIA RIVER GORGE

CITY            SKY/WX      TMP DP  RH  WIND    PRES   REMARKS
HOOD RIVER AP   CLOUDY      63  52  67  NW6     29.87
THE DALLES AP   CLOUDY      68  51  55  N17     29.83
6HR MIN TEMP:   64; 6HR MAX TEMP:   77;

#ARLINGTON AIRPON/A         72  48  43  W6      29.79
#CELILO DOT     N/A         78  51  39  W6      N/A
#MARYHILL 2W    N/A         71  51  49  W5      N/A
#MOSIER 1S      N/A         61  42  50  CALM    29.85S
#MURDOCK        N/A         64  54  70  W9      29.80R
#RUFUS DOT      N/A         74  50  43  N1      N/A

$$

ORZ510-050110-
NORTH CENTRAL OREGON

CITY            SKY/WX      TMP DP  RH  WIND    PRES   REMARKS
#ANTELOPE       N/A         53  50  89  SW5     29.71
#COW CYN RST AREN/A         52  51  96  SW9     N/A
#DUFUR 9E       N/A         64  50  60  W14     29.86
#GRASS VALLEY   N/A         64  48  56  NW3     N/A
#GRASS VALLEY 1SN/A         65  49  56  N6      29.83
#KENT DOT       N/A         67  39  36  N8      N/A
#MAUPIN SCHOOL  N/A         69  57  66  SW13G28 29.90
#MORO SCHOOL    N/A         68  53  59  W9      29.86
#SHANIKO 5WSW   N/A         63  38  39  NW8     N/A
#TYGH VALLEY 2NEN/A         70  52  53  N7      29.79
#WAPANITIA AIRPON/A         62  54  75  NW9     29.84
#WASCO 5NE      N/A         69  51  53  CALM    29.79
$$

ORZ511-050110-
CENTRAL OREGON

CITY            SKY/WX      TMP DP  RH  WIND    PRES   REMARKS
BEND AIRPORT    CLOUDY      57  54  90  N6      29.92
MADRAS AIRPORT  THUNDER     61  57  87  CALM    29.94
PRINEVILLE AP   MOCLDY      55  52  90  NE10    29.94F
REDMOND AIRPORT CLOUDY      57  51  80  NE8     29.92
6HR MIN TEMP:   53; 6HR MAX TEMP:   70;

#ASHWOOD SCHOOL N/A         55  51  86  E1      29.89
#BEND 1SW       N/A         59  51  75  N2      N/A
#BEND-AWBREY    N/A         60  54  81  N1      29.84R
#BEND-KIM LN    N/A         58  54  87  CALM    29.89
#CULVER         N/A         53  51  93  CALM    29.80
#LAKE BILLY CHINN/A         58  N/A N/A CALM    29.98R
#POWELL BUTTE   N/A         57  51  80  E6      29.81S
#PRINEVILLE 3N  N/A         56  N/A N/A NW2     29.85
#WARM SPRINGS   N/A         59  54  83  SW6     29.84

$$


ORZ509-050110-
EAST SLOPES OF OREGON CASCADES

CITY            SKY/WX      TMP DP  RH  WIND    PRES   REMARKS
SISTERS AWOS    N/A         57  50  77  CALM    29.90
#BLUE BOX PASS  N/A         54  N/A N/A NW2     N/A
#CAMP SHERMAN   N/A         58  52  80  CALM    29.93
#LA PINE DOT    N/A         59  46  62  W6      N/A
#LA PINE 4NW    N/A         55  49  80  CALM    29.87
#LAVA BUTTE DOT N/A         56  47  72  CALM    N/A
#SISTERS AIRPOR N/A         58  56  93  N1      30.17
#SISTERS ODOT   N/A         58  N/A N/A S1      N/A
#SISTERS 3N     N/A         59  52  78  CALM    29.91S
#SUNRIVER       N/A         58  50  75  SW1     29.86
#TUMALO 3W      N/A         56  50  80  N3      29.72
#WANOGA BUTTE D N/A         49  44  83  NE1     N/A

$$

ORZ044-050110-
LOWER COLUMBIA BASIN...OREGON

CITY            SKY/WX      TMP DP  RH  WIND    PRES   REMARKS
HERMISTON       MOCLDY      80  50  35  E9      29.78
6HR MIN TEMP:   72; 6HR MAX TEMP:   81; 6HR PCP:  TRACE;

#BOARDMAN SCHOOLN/A         80  46  30  NE1     29.77
#BOARDMAN 8SW   N/A         81  46  29  N3      29.75
#ECHO 8SW       N/A         78  51  39  CALM    29.80
#I-84 EX 198 DOTN/A         75  53  46  E8      N/A
#UMATILLA SCHOOLN/A         84  60  44  E2      29.82
#UMATILLA       N/A         84  47  28  CALM    29.70
$$

ORZ507-050110-
NORTHERN FOOTHILLS OF THE BLUES

CITY            SKY/WX      TMP DP  RH  WIND    PRES   REMARKS
PENDLETON AIRPT MOCLDY      77  49  37  NE12    29.81
6HR MIN TEMP:   71; 6HR MAX TEMP:   77;

#ADAMS 3WNW     N/A         74  52  46  NE6     29.75
#ATHENA         N/A         73  54  51  N2      29.78
#CAYUSE         N/A         73  53  49  N7      29.75
#HELIX SCHOOL   N/A         72  53  51  N7      29.76
#HELIX 3N       N/A         72  53  51  N13     29.81
#HELIX 6SW      N/A         75  51  43  N7      29.82
#HOLDMAN 5SE    N/A         75  51  43  N1      29.81
#HOLDMAN 6E     N/A         74  52  46  S6      29.58
#M-F FERNDALE   N/A         81  59  47  CALM    29.79
#M-F GROVE ELEM N/A         76  50  40  NW2     29.79
#M-FREEWATER 5SEN/A         77  55  47  CALM    29.82
#PENDLETON DNTN N/A         78  48  35  NE1     29.83
#PDT AQUATIC CTRN/A         77  49  37  N3      29.84
#PDT SUNRIDGE   N/A         78  53  42  N1      29.82
#PENDLETON 7NW  N/A         75  55  50  CALM    32.33
#TUTUILLA       N/A         74  54  50  CALM    29.78
#UMAPINE 2E     N/A         76  61  60  W1      29.76
#WESTON SCHOOL  N/A         71  49  46  NE6     29.75

$$

ORZ508-050110-
SOUTHERN FOOTHILLS OF THE BLUES

CITY            SKY/WX      TMP DP  RH  WIND    PRES   REMARKS
#AJAX           N/A         68  43  40  N1      27.63
#CONDON SCHOOL  N/A         69  46  44  N7      29.83
#CONDON 5W      N/A         63  47  56  N10     29.86
#FOSSIL SCHOOL  N/A         71  47  42  NE13    29.79
#HEPPNER EOC    N/A         74  46  37  NE7     29.69
#HEPPNER 4NE    N/A         69  46  44  E6      29.76
#LEXINGTON 2SE  N/A         78  48  35  NE6     29.78
#OLEX 4N        N/A         72  52  49  CALM    29.81
#RUGGS 5NE      N/A         72  44  37  NE13    30.04
#RUGGS 2SW      N/A         70  45  41  NE10    29.77

$$

ORZ502-503-050110-
BLUE MOUNTAINS

CITY            SKY/WX      TMP DP  RH  WIND    PRES   REMARKS
MEACHAM         MOCLDY      65  48  54  VRB5    29.90
6HR MIN TEMP:   65; 6HR MAX TEMP:   69;

#BATTLE MTN DOT N/A         62  53  72  N5      N/A
#GREENHORN 9SW  N/A         72  38  29  E6      26.05
#HARDMAN 10S    N/A         61  34  36  N5      30.22
#HEPPNER 15SE   N/A         65  48  54  CALM    29.81S
#LADD CYN SMT   N/A         72  42  34  NW8     N/A
#LADD CREEK ODOTN/A         72  49  44  NE6     N/A
#LONG CREEK HS  N/A         66  49  54  CALM    N/A
#N POWDER DOT   N/A         77  46  33  CALM    N/A
#PIKES PEAK     N/A         66  50  56  CALM    27.99
#TOLLGATE       N/A         59  50  72  NE2     29.83
#TROY SCHOOL    N/A         79  53  41  CALM    29.59
#UKIAH          N/A         66  52  61  N7      29.66
#WESTON 4E      N/A         68  53  59  NW1     29.73
$$

ORZ505-050110-
JOHN DAY BASIN

CITY            SKY/WX      TMP DP  RH  WIND    PRES   REMARKS
JOHN DAY        PTCLDY      70  45  41  W10     29.86
#DAYVILLE SCHOOLN/A         74  43  33  E5      29.76
#MITCHELL       N/A         68  51  55  W7      30.02
#MITCHELL 8NW   N/A         56  46  69  SW16G26 30.01
#MONUMENT HS    N/A         76  39  26  SE10    29.70
#MT. VERNON 5SE N/A         66  44  45  W5      29.82
#SPRAY SCHOOL   N/A         79  N/A N/A NE1     N/A
#WINLOCK        N/A         69  46  44  W2      29.80
$$

ORZ506-050110-
OCHOCO AND JOHN DAY HIGHLANDS

CITY            SKY/WX      TMP DP  RH  WIND    PRES   REMARKS
#BUCK CREEK DOT N/A         55  48  77  E2      N/A
#HORSE RIDGE DO N/A         62  41  46  SE2     N/A
#KEYES SMT DOT  N/A         65  42  43  E9      N/A
#PAULINA SCHOOL N/A         71  43  36  S5      29.22
#PINE MTN OBS   N/A         51  42  71  CALM    N/A
#PRAIRIE CITY   N/A         77  38  24  S7      29.79
#SENECA         N/A         68  N/A N/A S8      N/A
#SENECA 9NW     N/A         67  38  34  CALM    29.72
$$

ORZ049-050110-
GRANDE RONDE VALLEY

CITY            SKY/WX      TMP DP  RH  WIND    PRES   REMARKS
LA GRANDE       MOCLDY      75  43  32  CALM    29.83
#COVE           N/A         74  52  46  CALM    29.88
#COVE SCHOOL    N/A         74  47  38  CALM    29.87
#COVE 6NW       N/A         75  49  40  N1      29.71
#ELGIN 3N       N/A         75  40  28  S5      29.83S
#ELGIN 1E       N/A         76  46  34  W3      N/A
#IMBLER SCHOOL  N/A         75  45  34  N1      29.81
#ISLAND CITY 4N N/A         60  53  78  CALM    29.96
#LADD CYN DOT   N/A         76  50  40  NE2     N/A
#LA GRANDE ELEM N/A         74  45  35  NE1     29.86S
#UNION 1S       N/A         73  50  44  CALM    29.63
$$

ORZ050-050110-
WALLOWA COUNTY

CITY            SKY/WX      TMP DP  RH  WIND    PRES   REMARKS
JOSEPH AIRPORT  MOCLDY      70  43  38  N3      29.91
#ENTERPRISE AP  N/A         49  29  46  CALM    29.84
#ENTERPRISE HS  N/A         72  49  44  N2      29.89
#IMNAHA SCHOOL  N/A         77  53  43  N5      29.80
#IMNAHA 10S     N/A         78  40  26  W6      29.83
#JOSEPH 3N      N/A         69  46  44  N6      29.93
#JOSEPH 3W      N/A         68  46  45  N2      29.78S
#LOSTINE        N/A         73  50  44  N3      29.56
#MT HOWARD 8000 N/A         52  31  44  SW5     30.10
#PROMISE 1S     N/A         69  49  49  W2      29.87
#WALLOWA SCHOOL N/A         74  47  38  CALM    29.82



$$



USA.gov is the U.S. government's official web portal to all federal, state and local government web resources and services.